When you browse on this site, cookies collect data to enhance your experience and personalize the content and advertising you see.
Visit our Privacy Policy to learn more. By continuing to use the site, you agree to this use of cookies and data.
  • en Suisse
  • Liste des pays
  • À 7 jours
  • Température de l'eau
  • Carte satellitaire
  • Carte météo
  • Widgets météo
  • user-avatar
    Se connecter

    Météo par heure à Dublin

    Ce jour, 19 Décembre, Mercredi

    Heure Température Précipitation Vent Pression Humidité
    00:00 +2°C° 0 mm 5 m/s 731 mmHg 92%
    01:00 +2°C° 0 mm 5 m/s 731 mmHg 91%
    02:00 +2°C° 0 mm 5 m/s 731 mmHg 91%
    03:00 +2°C° 0 mm 5 m/s 731 mmHg 90%
    04:00 +2°C° 0 mm 6 m/s 731 mmHg 90%
    05:00 +2°C° 0 mm 6 m/s 731 mmHg 89%
    06:00 +2°C° 0 mm 7 m/s 731 mmHg 88%
    07:00 +2°C° 0 mm 7 m/s 731 mmHg 88%
    08:00 +2°C° 0 mm 7 m/s 731 mmHg 88%
    09:00 +2°C° 0 mm 7 m/s 731 mmHg 88%
    10:00 +3°C° 0 mm 7 m/s 731 mmHg 86%
    11:00 +4°C° 0 mm 7 m/s 731 mmHg 84%
    12:00 +5°C° 0 mm 8 m/s 731 mmHg 83%
    13:00 +5°C° 0.2 mm 7 m/s 730 mmHg 84%
    14:00 +4°C° 0.2 mm 7 m/s 730 mmHg 84%
    15:00 +4°C° 0.2 mm 7 m/s 730 mmHg 85%
    16:00 +4°C° 0.1 mm 7 m/s 730 mmHg 87%
    17:00 +3°C° 0.1 mm 7 m/s 729 mmHg 88%
    18:00 +3°C° 0.1 mm 7 m/s 729 mmHg 90%
    19:00 +3°C° 0.1 mm 7 m/s 729 mmHg 90%
    20:00 +3°C° 0.1 mm 7 m/s 729 mmHg 90%
    21:00 +2°C° 0.1 mm 8 m/s 729 mmHg 90%
    22:00 +2°C° 0.1 mm 8 m/s 730 mmHg 90%
    23:00 +4°C° 0.1 mm 8 m/s 730 mmHg 90%

    Demain, 20 Décembre, Jeudi

    Heure Température Précipitation Vent Pression Humidité
    00:00 +3°C° 0.1 mm 9 m/s 731 mmHg 90%
    01:00 +4°C° 0 mm 8 m/s 731 mmHg 90%
    02:00 +2°C° 0 mm 8 m/s 731 mmHg 90%
    03:00 +2°C° 0 mm 8 m/s 732 mmHg 90%
    04:00 +2°C° 0 mm 8 m/s 732 mmHg 90%
    05:00 +2°C° 0 mm 8 m/s 733 mmHg 90%
    06:00 +2°C° 0 mm 8 m/s 733 mmHg 90%
    07:00 +2°C° 0.1 mm 8 m/s 733 mmHg 89%
    08:00 +2°C° 0.1 mm 8 m/s 734 mmHg 89%
    09:00 +2°C° 0.1 mm 8 m/s 734 mmHg 89%
    10:00 +4°C° 0.2 mm 8 m/s 734 mmHg 87%
    11:00 +4°C° 0.2 mm 8 m/s 734 mmHg 84%
    12:00 +5°C° 0.2 mm 8 m/s 734 mmHg 82%
    13:00 +5°C° 0.1 mm 8 m/s 734 mmHg 83%
    14:00 +5°C° 0.1 mm 8 m/s 734 mmHg 83%
    15:00 +5°C° 0.1 mm 8 m/s 734 mmHg 83%
    16:00 +4°C° 0 mm 8 m/s 734 mmHg 85%
    17:00 +3°C° 0 mm 7 m/s 734 mmHg 87%
    18:00 +3°C° 0 mm 7 m/s 734 mmHg 90%
    19:00 +3°C° 0 mm 6 m/s 734 mmHg 90%
    20:00 +3°C° 0 mm 6 m/s 734 mmHg 91%
    21:00 +2°C° 0 mm 5 m/s 733 mmHg 92%
    22:00 +3°C° 0 mm 5 m/s 733 mmHg 92%
    23:00 +4°C° 0 mm 4 m/s 732 mmHg 92%

    Après-demain, 21 Décembre, Vendredi

    Heure Température Précipitation Vent Pression Humidité
    00:00 +4°C° 0 mm 4 m/s 731 mmHg 92%
    01:00 +4°C° 0.7 mm 3 m/s 730 mmHg 93%
    02:00 +4°C° 0.7 mm 3 m/s 730 mmHg 94%
    03:00 +5°C° 0.7 mm 3 m/s 729 mmHg 95%
    04:00 +5°C° 0.6 mm 4 m/s 729 mmHg 94%
    05:00 +6°C° 0.6 mm 5 m/s 728 mmHg 93%
    06:00 +7°C° 0.6 mm 6 m/s 728 mmHg 92%
    07:00 +5°C° 0 mm 8 m/s 728 mmHg 89%
    08:00 +5°C° 0 mm 9 m/s 729 mmHg 86%
    09:00 +5°C° 0 mm 10 m/s 729 mmHg 83%
    10:00 +5°C° 0 mm 10 m/s 730 mmHg 81%
    11:00 +5°C° 0 mm 10 m/s 731 mmHg 79%
    12:00 +4°C° 0 mm 11 m/s 731 mmHg 77%
    13:00 +5°C° 0 mm 10 m/s 732 mmHg 79%
    14:00 +5°C° 0 mm 9 m/s 732 mmHg 80%
    15:00 +5°C° 0 mm 8 m/s 733 mmHg 81%
    16:00 +5°C° 0.3 mm 7 m/s 733 mmHg 86%
    17:00 +5°C° 0.3 mm 5 m/s 733 mmHg 90%
    18:00 +5°C° 0.3 mm 4 m/s 732 mmHg 95%
    19:00 +5°C° 0.8 mm 5 m/s 733 mmHg 93%
    20:00 +5°C° 0.8 mm 5 m/s 734 mmHg 91%
    21:00 +4°C° 0.8 mm 6 m/s 734 mmHg 89%
    22:00 +4°C° 0.1 mm 7 m/s 735 mmHg 88%
    23:00 +2°C° 0.1 mm 8 m/s 736 mmHg 88%

    22 Décembre, Samedi

    Heure Température Précipitation Vent Pression Humidité
    00:00 +2°C° 0.1 mm 9 m/s 737 mmHg 88%
    01:00 +2°C° 0 mm 8 m/s 738 mmHg 89%
    02:00 +2°C° 0 mm 8 m/s 738 mmHg 91%
    03:00 +3°C° 0 mm 7 m/s 739 mmHg 93%
    04:00 +3°C° 0 mm 7 m/s 740 mmHg 93%
    05:00 +2°C° 0 mm 6 m/s 740 mmHg 94%
    06:00 +2°C° 0 mm 6 m/s 741 mmHg 94%
    07:00 +2°C° 0 mm 6 m/s 741 mmHg 94%
    08:00 +2°C° 0 mm 5 m/s 742 mmHg 95%
    09:00 +1°C° 0 mm 5 m/s 743 mmHg 95%
    10:00 +2°C° 0 mm 5 m/s 743 mmHg 92%
    11:00 +3°C° 0 mm 6 m/s 744 mmHg 89%
    12:00 +4°C° 0 mm 6 m/s 744 mmHg 87%
    13:00 +4°C° 0 mm 6 m/s 744 mmHg 87%
    14:00 +4°C° 0 mm 6 m/s 745 mmHg 87%
    15:00 +4°C° 0 mm 6 m/s 745 mmHg 88%
    16:00 +3°C° 0 mm 5 m/s 745 mmHg 90%
    17:00 +3°C° 0 mm 5 m/s 746 mmHg 92%
    18:00 +2°C° 0 mm 5 m/s 746 mmHg 94%
    19:00 +3°C° 0 mm 4 m/s 746 mmHg 94%
    20:00 +3°C° 0 mm 4 m/s 746 mmHg 95%
    21:00 +3°C° 0 mm 4 m/s 747 mmHg 95%
    22:00 +3°C° 0 mm 4 m/s 747 mmHg 95%
    23:00 +3°C° 0 mm 3 m/s 747 mmHg 95%

    23 Décembre, Dimanche

    Heure Température Précipitation Vent Pression Humidité
    00:00 +2°C° 0 mm 3 m/s 747 mmHg 95%
    01:00 +2°C° 0 mm 3 m/s 747 mmHg 95%
    02:00 +3°C° 0 mm 3 m/s 747 mmHg 95%
    03:00 +3°C° 0 mm 3 m/s 747 mmHg 95%
    04:00 +4°C° 0 mm 2 m/s 747 mmHg 95%
    05:00 +4°C° 0 mm 2 m/s 747 mmHg 95%
    06:00 +5°C° 0 mm 1 m/s 747 mmHg 95%
    07:00 +5°C° 0 mm 1 m/s 748 mmHg 95%
    08:00 +5°C° 0 mm 1 m/s 748 mmHg 95%
    09:00 +5°C° 0 mm 1 m/s 748 mmHg 95%
    10:00 +5°C° 0.1 mm 2 m/s 748 mmHg 94%
    11:00 +6°C° 0.1 mm 2 m/s 748 mmHg 94%
    12:00 +7°C° 0.1 mm 2 m/s 749 mmHg 93%
    13:00 +6°C° 0.3 mm 2 m/s 748 mmHg 93%
    14:00 +5°C° 0.3 mm 3 m/s 748 mmHg 94%
    15:00 +5°C° 0.3 mm 3 m/s 748 mmHg 94%
    16:00 +5°C° 0.1 mm 4 m/s 748 mmHg 94%
    17:00 +5°C° 0.1 mm 4 m/s 748 mmHg 94%
    18:00 +5°C° 0.1 mm 4 m/s 748 mmHg 94%
    19:00 +5°C° 0 mm 4 m/s 749 mmHg 94%
    20:00 +5°C° 0 mm 4 m/s 749 mmHg 93%
    21:00 +5°C° 0 mm 4 m/s 749 mmHg 92%
    22:00 +5°C° 0 mm 4 m/s 749 mmHg 92%
    23:00 +5°C° 0 mm 4 m/s 749 mmHg 93%

    24 Décembre, Lundi

    Heure Température Précipitation Vent Pression Humidité
    00:00 +5°C° 0 mm 4 m/s 750 mmHg 93%
    01:00 +5°C° 0 mm 4 m/s 750 mmHg 94%
    02:00 +5°C° 0 mm 4 m/s 750 mmHg 94%
    03:00 +6°C° 0 mm 4 m/s 750 mmHg 95%
    04:00 +6°C° 0.3 mm 4 m/s 750 mmHg 95%
    05:00 +6°C° 0.3 mm 5 m/s 750 mmHg 96%
    06:00 +7°C° 0.3 mm 5 m/s 750 mmHg 96%
    07:00 +7°C° 0.5 mm 5 m/s 750 mmHg 96%
    08:00 +7°C° 0.5 mm 5 m/s 750 mmHg 97%
    09:00 +8°C° 0.5 mm 5 m/s 750 mmHg 97%
    10:00 +8°C° 0.1 mm 4 m/s 751 mmHg 97%
    11:00 +8°C° 0.1 mm 4 m/s 751 mmHg 97%
    12:00 +10°C° 0.1 mm 4 m/s 751 mmHg 96%
    13:00 +10°C° 0 mm 3 m/s 751 mmHg 96%
    14:00 +10°C° 0 mm 3 m/s 751 mmHg 96%
    15:00 +10°C° 0 mm 3 m/s 751 mmHg 96%
    16:00 +10°C° 0 mm 3 m/s 751 mmHg 96%
    17:00 +9°C° 0 mm 3 m/s 751 mmHg 97%
    18:00 +9°C° 0 mm 3 m/s 751 mmHg 97%
    19:00 +8°C° 0 mm 3 m/s 751 mmHg 97%
    20:00 +8°C° 0 mm 3 m/s 751 mmHg 97%
    21:00 +8°C° 0 mm 3 m/s 751 mmHg 96%
    22:00 +8°C° 0 mm 3 m/s 751 mmHg 96%
    23:00 +7°C° 0 mm 3 m/s 751 mmHg 96%
    Voir plus